User: anonymous   Login
Location: Fort Wayne
(41.1310°N, 85.1290°W)
Time: 15:38:36
(UTC-04:00)
Language:

MetOp-A - Orbit

View from above orbital plane
View from above orbital plane
View from above satellite
View from above satellite

Ground track
Ground track

The orbit data is extracted from the following two-line orbital elements,

1 29499U 06044A   16176.91822917 +.00000007 +00000-0 +23082-4 0  9993
2 29499 098.6951 235.7712 0002390 108.6994 241.5932 14.21495450502199
Epoch (UTC): 24 June 2016 22:02:15
Eccentricity: 0.0002390
inclination: 98.6951°
perigee height: 818 km
apogee height: 822 km
right ascension of ascending node: 235.7712°
argument of perigee: 108.6994°
revolutions per day: 14.21495450
mean anomaly at epoch: 241.5932°
orbit number at epoch: 50219

The dashed part of the orbit path shows where the satellite is in the earth's shadow,  

DLR